星链-5613 (STARLINK-5613 )

导读 | 星芒AI

STARLINK-5613 是 SpaceX Starlink 项目中的一颗低轨通信卫星,属于第 56 批部署的星链卫星群。该卫星于 2023 年发射,运行在约 550 公里的轨道高度,旨在为全球提供高速互联网服务。作为 Starlink 网络的一部分,它通过与其他卫星协同工作,提升网络覆盖与连接稳定性,尤其在偏远地区。该卫星采用先进推进系统,具备自主变轨和避碰能力,有助于降低太空碎片风险。

基本信息
目录编号:
55752
目录名称:
STARLINK-5613
国际标识:
2023-028M
轨道中心:
EARTH
卫星名称:
星链-5613
卫星全名:
星链-5613 (STARLINK-5613 )
卫星状态:
在轨 (已飞行1024 天)
发射日期:
2023-03-03 UTC
国别 :
美国 (US)
星等 :
--
轨道信息
数据来源 国际轨道数据
星历时间: 2025-12-20T23:31:08+0800
23小时前
查看轨道信息
半长轴: 6950.21km
偏心率: 0.0003661
轨道倾角: 70.000°
近地点辐角 269.498°
升交点赤经 83.617°
平近点角 90.576°
近地点: 569.528km
远地点: 574.618km
周期: 96.107分钟
每日圈数: 14.983246
详细信息
固有亮度:
5
最大亮度:
2.5
卫星平台:
Starlink v1.5
覆盖范围:
全球
运营商:
太空探索技术公司
运营商所在国:
美国
制造商(研发单位):
太空探索技术公司
制造商所在国:
美国
使用方式:
暂无
卫星简介
星链(Starlink)计划是由太空探索技术公司(SpaceX)提出的一个巨型低轨卫星互联网星座项目,计划在2019年至2024年间在太空搭建由约1.2万颗卫星组成的“星链”网络,其中1584颗将部署在地球上空550千米处的近地轨道,并从2020年开始工作。该卫星仍在工作。
2D轨道图
3D轨道图
轨道高度分析图
轨道倾角分析图
轨道综合分析图
查看轨道综合分析图